Powrót do katalogu

STARLINK-37652

AktywnyŁącznośćVLEO
NORAD 69354·PAYLOAD·🇺🇸 United States

Wystrzelony Jun 4, 2026 z Cape Canaveral Space Force Station

Loading…

Następne Przeloty (najbliższe 24 godziny)

TLE

ŚwieżeSource: CelesTrak SupGP

Epoka: Sep 14, 2026, 15:03 UTC

1 69354C 26123B   26257.62756944  .00069129  00000+0  19780-2 0  2576
2 69354  53.1579 170.1208 0001249  94.6313 324.7732 15.35361982    12

Śledź STARLINK-37652 w czasie rzeczywistym z AllMySat

Download on the App Store